When you browse on this site, cookies collect data to enhance your experience and personalize the content and advertising you see.
Visit our Privacy Policy to learn more. By continuing to use the site, you agree to this use of cookies and data.
  • In Schweiz
  • Länderverzeichnis
  • Für 7 Tage
  • Wassertemperatur
  • Wetterkarte
  • Widgets
  • user-avatar
    Anmelden

    Stündliche Wetter Barra

    Heute, 30 Mai, Samstag

    Zeit Temperatur Niederschläge Wind Luftdruck Luftfeuchtigkeit
    00:00 +17°C° 0 mm 2 m/S 753 mmHg 82%
    01:00 +17°C° 0 mm 2 m/S 752 mmHg 84%
    02:00 +17°C° 0 mm 2 m/S 752 mmHg 85%
    03:00 +17°C° 0 mm 2 m/S 752 mmHg 86%
    04:00 +17°C° 0 mm 2 m/S 752 mmHg 89%
    05:00 +17°C° 0 mm 2 m/S 753 mmHg 87%
    06:00 +18°C° 0 mm 2 m/S 753 mmHg 86%
    07:00 +18°C° 0 mm 2 m/S 753 mmHg 85%
    08:00 +20°C° 0 mm 2 m/S 753 mmHg 80%
    09:00 +21°C° 0 mm 3 m/S 753 mmHg 76%
    10:00 +24°C° 0 mm 3 m/S 754 mmHg 69%
    11:00 +25°C° 0 mm 3 m/S 753 mmHg 68%
    12:00 +25°C° 0 mm 3 m/S 752 mmHg 67%
    13:00 +25°C° 0 mm 3 m/S 752 mmHg 66%
    14:00 +25°C° 0 mm 4 m/S 751 mmHg 68%
    15:00 +25°C° 0 mm 4 m/S 751 mmHg 71%
    16:00 +23°C° 0 mm 4 m/S 751 mmHg 74%
    17:00 +22°C° 0.1 mm 3 m/S 751 mmHg 79%
    18:00 +21°C° 0.1 mm 3 m/S 751 mmHg 85%
    19:00 +20°C° 0.1 mm 3 m/S 752 mmHg 91%
    20:00 +20°C° 0.2 mm 3 m/S 752 mmHg 91%
    21:00 +21°C° 0.2 mm 4 m/S 752 mmHg 91%
    22:00 +21°C° 0.2 mm 4 m/S 753 mmHg 91%
    23:00 +21°C° 0.3 mm 4 m/S 753 mmHg 92%

    Morgen, 31 Mai, Sonntag

    Zeit Temperatur Niederschläge Wind Luftdruck Luftfeuchtigkeit
    00:00 +21°C° 0.3 mm 4 m/S 752 mmHg 93%
    01:00 +21°C° 0.3 mm 4 m/S 752 mmHg 94%
    02:00 +21°C° 0.4 mm 4 m/S 752 mmHg 94%
    03:00 +21°C° 0.4 mm 4 m/S 752 mmHg 95%
    04:00 +20°C° 0.4 mm 4 m/S 751 mmHg 95%
    05:00 +20°C° 0.3 mm 4 m/S 752 mmHg 95%
    06:00 +20°C° 0.3 mm 4 m/S 752 mmHg 96%
    07:00 +20°C° 0.3 mm 4 m/S 752 mmHg 96%
    08:00 +21°C° 0.2 mm 4 m/S 752 mmHg 95%
    09:00 +21°C° 0.2 mm 4 m/S 752 mmHg 95%
    10:00 +21°C° 0.2 mm 3 m/S 752 mmHg 94%
    11:00 +21°C° 0.2 mm 3 m/S 752 mmHg 93%
    12:00 +21°C° 0.2 mm 3 m/S 751 mmHg 92%
    13:00 +21°C° 0.2 mm 3 m/S 751 mmHg 91%
    14:00 +22°C° 0.1 mm 4 m/S 751 mmHg 89%
    15:00 +22°C° 0.1 mm 4 m/S 750 mmHg 87%
    16:00 +23°C° 0.1 mm 4 m/S 750 mmHg 85%
    17:00 +22°C° 0.2 mm 3 m/S 750 mmHg 88%
    18:00 +21°C° 0.2 mm 3 m/S 751 mmHg 91%
    19:00 +20°C° 0.2 mm 3 m/S 751 mmHg 95%
    20:00 +20°C° 0.2 mm 3 m/S 751 mmHg 94%
    21:00 +20°C° 0.2 mm 2 m/S 752 mmHg 94%
    22:00 +20°C° 0.2 mm 2 m/S 752 mmHg 94%
    23:00 +20°C° 0.2 mm 2 m/S 752 mmHg 94%

    übermorgen, 1 Juni, Montag

    Zeit Temperatur Niederschläge Wind Luftdruck Luftfeuchtigkeit
    00:00 +20°C° 0.2 mm 2 m/S 752 mmHg 94%
    01:00 +21°C° 0.2 mm 1 m/S 751 mmHg 94%
    02:00 +21°C° 0.1 mm 1 m/S 751 mmHg 94%
    03:00 +20°C° 0.1 mm 1 m/S 751 mmHg 95%
    04:00 +20°C° 0.1 mm 1 m/S 751 mmHg 95%
    05:00 +20°C° 0.1 mm 1 m/S 751 mmHg 96%
    06:00 +19°C° 0.1 mm 2 m/S 751 mmHg 96%
    07:00 +19°C° 0.1 mm 2 m/S 751 mmHg 96%
    08:00 +20°C° 0.2 mm 2 m/S 752 mmHg 92%
    09:00 +23°C° 0.2 mm 2 m/S 752 mmHg 89%
    10:00 +24°C° 0.2 mm 2 m/S 752 mmHg 85%
    11:00 +24°C° 0.2 mm 3 m/S 751 mmHg 85%
    12:00 +24°C° 0.2 mm 3 m/S 751 mmHg 84%
    13:00 +25°C° 0.2 mm 3 m/S 750 mmHg 83%
    14:00 +25°C° 0.1 mm 3 m/S 750 mmHg 82%
    15:00 +25°C° 0.1 mm 3 m/S 750 mmHg 80%
    16:00 +25°C° 0.1 mm 3 m/S 750 mmHg 78%
    17:00 +24°C° 0.1 mm 2 m/S 750 mmHg 83%
    18:00 +21°C° 0.1 mm 2 m/S 750 mmHg 88%
    19:00 +21°C° 0.1 mm 1 m/S 751 mmHg 93%
    20:00 +21°C° 0.1 mm 1 m/S 751 mmHg 93%
    21:00 +21°C° 0.1 mm 1 m/S 752 mmHg 94%
    22:00 +20°C° 0.1 mm 1 m/S 752 mmHg 94%
    23:00 +20°C° 0.1 mm 1 m/S 752 mmHg 94%

    2 Juni, Dienstag

    Zeit Temperatur Niederschläge Wind Luftdruck Luftfeuchtigkeit
    00:00 +20°C° 0.1 mm 1 m/S 752 mmHg 94%
    01:00 +20°C° 0.1 mm 1 m/S 751 mmHg 93%
    02:00 +19°C° 0 mm 1 m/S 751 mmHg 94%
    03:00 +19°C° 0 mm 1 m/S 751 mmHg 94%
    04:00 +19°C° 0 mm 1 m/S 751 mmHg 94%
    05:00 +19°C° 0 mm 1 m/S 751 mmHg 94%
    06:00 +18°C° 0 mm 2 m/S 752 mmHg 94%
    07:00 +18°C° 0 mm 2 m/S 752 mmHg 94%
    08:00 +21°C° 0 mm 1 m/S 752 mmHg 86%
    09:00 +23°C° 0 mm 1 m/S 753 mmHg 79%
    10:00 +25°C° 0 mm 1 m/S 753 mmHg 71%
    11:00 +25°C° 0 mm 2 m/S 753 mmHg 66%
    12:00 +26°C° 0 mm 3 m/S 752 mmHg 60%
    13:00 +26°C° 0 mm 3 m/S 751 mmHg 54%
    14:00 +26°C° 0 mm 3 m/S 751 mmHg 54%
    15:00 +26°C° 0 mm 3 m/S 751 mmHg 55%
    16:00 +26°C° 0 mm 3 m/S 751 mmHg 56%
    17:00 +24°C° 0 mm 2 m/S 751 mmHg 62%
    18:00 +21°C° 0 mm 2 m/S 751 mmHg 69%
    19:00 +19°C° 0 mm 2 m/S 752 mmHg 76%
    20:00 +19°C° 0 mm 2 m/S 752 mmHg 77%
    21:00 +18°C° 0 mm 2 m/S 753 mmHg 78%
    22:00 +18°C° 0 mm 2 m/S 753 mmHg 80%
    23:00 +18°C° 0 mm 3 m/S 753 mmHg 81%

    3 Juni, Mittwoch

    Zeit Temperatur Niederschläge Wind Luftdruck Luftfeuchtigkeit
    00:00 +17°C° 0 mm 3 m/S 753 mmHg 81%
    01:00 +17°C° 0 mm 3 m/S 753 mmHg 82%
    02:00 +17°C° 0.1 mm 4 m/S 752 mmHg 82%
    03:00 +17°C° 0.1 mm 4 m/S 752 mmHg 83%
    04:00 +17°C° 0.1 mm 4 m/S 752 mmHg 83%
    05:00 +16°C° 0.1 mm 5 m/S 752 mmHg 83%
    06:00 +16°C° 0.1 mm 5 m/S 753 mmHg 84%
    07:00 +16°C° 0.1 mm 5 m/S 753 mmHg 84%
    08:00 +19°C° 0 mm 6 m/S 754 mmHg 80%
    09:00 +20°C° 0 mm 6 m/S 754 mmHg 76%
    10:00 +21°C° 0 mm 6 m/S 754 mmHg 71%
    11:00 +21°C° 0.1 mm 6 m/S 753 mmHg 71%
    12:00 +21°C° 0.1 mm 6 m/S 753 mmHg 70%
    13:00 +21°C° 0.1 mm 6 m/S 752 mmHg 69%
    14:00 +21°C° 0 mm 5 m/S 752 mmHg 68%
    15:00 +21°C° 0 mm 5 m/S 752 mmHg 67%
    16:00 +21°C° 0 mm 4 m/S 752 mmHg 66%
    17:00 +20°C° 0 mm 4 m/S 752 mmHg 72%
    18:00 +18°C° 0 mm 4 m/S 753 mmHg 78%
    19:00 +17°C° 0 mm 4 m/S 753 mmHg 84%
    20:00 +17°C° 0.1 mm 4 m/S 753 mmHg 84%
    21:00 +17°C° 0.1 mm 4 m/S 754 mmHg 85%
    22:00 +17°C° 0.1 mm 4 m/S 754 mmHg 85%
    23:00 +17°C° 0 mm 4 m/S 754 mmHg 86%

    4 Juni, Donnerstag

    Zeit Temperatur Niederschläge Wind Luftdruck Luftfeuchtigkeit
    00:00 +15°C° 0 mm 4 m/S 753 mmHg 87%
    01:00 +15°C° 0 mm 5 m/S 753 mmHg 88%
    02:00 +15°C° 0 mm 5 m/S 753 mmHg 88%
    03:00 +15°C° 0 mm 5 m/S 753 mmHg 89%
    04:00 +14°C° 0 mm 5 m/S 752 mmHg 89%
    05:00 +15°C° 0 mm 4 m/S 753 mmHg 88%
    06:00 +15°C° 0 mm 4 m/S 753 mmHg 87%
    07:00 +15°C° 0 mm 4 m/S 754 mmHg 85%
    08:00 +17°C° 0 mm 4 m/S 754 mmHg 81%
    09:00 +17°C° 0 mm 5 m/S 754 mmHg 76%
    10:00 +19°C° 0 mm 5 m/S 754 mmHg 72%
    11:00 +20°C° 0 mm 5 m/S 753 mmHg 72%
    12:00 +20°C° 0 mm 5 m/S 753 mmHg 72%
    13:00 +21°C° 0 mm 5 m/S 753 mmHg 72%
    14:00 +21°C° 0 mm 5 m/S 752 mmHg 74%
    15:00 +21°C° 0 mm 4 m/S 752 mmHg 75%
    16:00 +21°C° 0 mm 4 m/S 752 mmHg 77%
    17:00 +20°C° 0.1 mm 4 m/S 752 mmHg 80%
    18:00 +20°C° 0.1 mm 4 m/S 753 mmHg 83%
    19:00 +20°C° 0.1 mm 4 m/S 753 mmHg 85%
    20:00 +20°C° 0.2 mm 4 m/S 753 mmHg 87%
    21:00 +20°C° 0.2 mm 4 m/S 754 mmHg 88%
    22:00 +20°C° 0.2 mm 5 m/S 754 mmHg 89%
    23:00 +20°C° 0.3 mm 4 m/S 753 mmHg 90%
    Mehr zeigen